Statesboro, GA

3:46 PM EDT on April 27, 2017 (GMT -0400)
Statesboro-Bulloch County

Weather History for KTBR - February, 2013

Change the Weather History Date:

Sunday, February 10, 2013

  Actual Average (KSBO) Record (KSBO)
Temperature  
Mean Temperature 52 °F -  
Max Temperature 71 °F 58 °F 69 °F (2013)
Min Temperature 33 °F 32 °F 28 °F (2016)
Degree Days  
Heating Degree Days 13    
Growing Degree Days 2 (Base 50)    
Moisture  
Dew Point 45 °F    
Average Humidity 75    
Maximum Humidity 100    
Minimum Humidity 46    
Precipitation  
Precipitation 0.00 in - - ()
Sea Level Pressure  
Sea Level Pressure 30.27 in    
Wind  
Wind Speed 4 mph (SE)    
Max Wind Speed 17 mph    
Max Gust Speed 24 mph    
Visibility 10 miles    
Events Rain    
Averages and records for this station are not official NWS values.
T = Trace of Precipitation, MM = Missing Value Source: NWS Daily Summary

Daily Weather History Graph

Daily Weather History Graph

Search for Another Location

Airport or City:

Trip Planner

Search our weather history database for the weather conditions in past years. The results will help you decide how hot, cold, wet, or windy it might be!

Date:

Astronomy

Feb. 10, 2013 Rise Set
Actual Time 7:14 AM EST 6:08 PM EST
Civil Twilight 6:48 AM EST 6:33 PM EST
Nautical Twilight 6:19 AM EST 7:02 PM EST
Astronomical Twilight 5:51 AM EST 7:31 PM EST
Moon 7:07 AM EST (2/10) 6:52 PM EST (2/10)
Length of Visible Light 11h 45m
Length of Day
10h 54m
New Moon, 0% of the Moon is Illuminated
Feb 10
New Moon
Feb 17
First Quarter
Feb 25
Full
Mar 4
Last Quarter
Mar 11
New

Hourly Weather History & Observations

Time (EST) Temp. Windchill Dew Point Humidity Pressure Visibility Wind Dir Wind Speed Gust Speed Precip Events Conditions
12:15 AM 37.4 °F - 37.4 °F 100% 30.31 in 10.0 mi Calm Calm - N/A   Clear
12:35 AM 35.6 °F - 35.6 °F 100% 30.31 in 10.0 mi Calm Calm - N/A   Clear
12:55 AM 37.4 °F - 37.4 °F 100% 30.31 in 10.0 mi Calm Calm - N/A   Clear
1:15 AM 37.4 °F - 37.4 °F 100% 30.31 in 10.0 mi Calm Calm - N/A   Clear
1:35 AM 35.6 °F - 35.6 °F 100% 30.31 in 10.0 mi Calm Calm - N/A   Clear
1:55 AM 35.6 °F - 35.6 °F 100% 30.31 in 7.0 mi Calm Calm - N/A   Clear
2:15 AM 35.6 °F - 35.6 °F 100% 30.31 in 10.0 mi Calm Calm - N/A   Clear
2:35 AM 35.6 °F - 35.6 °F 100% 30.31 in 10.0 mi Calm Calm - N/A   Clear
2:55 AM 35.6 °F - 35.6 °F 100% 30.32 in 10.0 mi Calm Calm - N/A   Clear
3:15 AM 35.6 °F - 35.6 °F 100% 30.31 in 10.0 mi Calm Calm - N/A   Clear
3:35 AM 33.8 °F - 33.8 °F 100% 30.31 in 10.0 mi Calm Calm - N/A   Clear
3:55 AM 35.6 °F - 35.6 °F 100% 30.31 in 10.0 mi Calm Calm - N/A   Clear
4:15 AM 35.6 °F - 35.6 °F 100% 30.31 in 10.0 mi Calm Calm - N/A   Clear
4:35 AM 33.8 °F - 33.8 °F 100% 30.31 in 10.0 mi Calm Calm - N/A   Clear
4:55 AM 35.6 °F - 35.6 °F 100% 30.31 in 10.0 mi Calm Calm - N/A   Clear
5:15 AM 35.6 °F - 35.6 °F 100% 30.31 in 10.0 mi Calm Calm - N/A   Clear
5:35 AM 35.6 °F - 35.6 °F 100% 30.32 in 10.0 mi Calm Calm - N/A   Clear
5:55 AM 35.6 °F - 35.6 °F 100% 30.32 in 10.0 mi Calm Calm - N/A   Clear
6:15 AM 35.6 °F - 35.6 °F 100% 30.33 in 10.0 mi Calm Calm - N/A   Clear
6:35 AM 35.6 °F - 35.6 °F 100% 30.33 in 10.0 mi Calm Calm - N/A   Clear
6:55 AM 35.6 °F - 35.6 °F 100% 30.34 in 10.0 mi Calm Calm - N/A   Clear
7:15 AM 35.6 °F 32.8 °F 35.6 °F 100% 30.35 in 10.0 mi NNE 3.5 mph - N/A   Clear
7:35 AM 41.0 °F 38.0 °F 41.0 °F 100% 30.35 in 10.0 mi East 4.6 mph - N/A   Clear
7:55 AM 42.8 °F 40.1 °F 42.8 °F 100% 30.35 in 10.0 mi East 4.6 mph - N/A   Clear
8:15 AM 44.6 °F 43.1 °F 42.8 °F 93% 30.35 in 10.0 mi East 3.5 mph - N/A   Clear
8:35 AM 46.4 °F 44.3 °F 39.2 °F 76% 30.35 in 10.0 mi East 4.6 mph - N/A   Clear
8:55 AM 48.2 °F - 41.0 °F 76% 30.34 in 10.0 mi East 3.5 mph - N/A   Clear
9:15 AM 50.0 °F - 39.2 °F 66% 30.34 in 10.0 mi ENE 3.5 mph - N/A   Clear
9:35 AM 53.6 °F - 41.0 °F 62% 30.34 in 10.0 mi East 4.6 mph - N/A   Clear
9:55 AM 55.4 °F - 42.8 °F 63% 30.34 in 10.0 mi ESE 5.8 mph - N/A   Clear
10:15 AM 57.2 °F - 42.8 °F 59% 30.34 in 10.0 mi East 8.1 mph - N/A   Clear
10:35 AM 59.0 °F - 44.6 °F 59% 30.35 in 10.0 mi ESE 9.2 mph - N/A   Clear
10:55 AM 60.8 °F - 46.4 °F 59% 30.36 in 10.0 mi ESE 9.2 mph - N/A   Clear
11:15 AM 62.6 °F - 46.4 °F 55% 30.37 in 10.0 mi ESE 5.8 mph - N/A   Clear
11:35 AM 64.4 °F - 46.4 °F 52% 30.36 in 10.0 mi SE 8.1 mph - N/A   Mostly Cloudy
11:55 AM 64.4 °F - 48.2 °F 56% 30.34 in 10.0 mi SE 8.1 mph - N/A   Scattered Clouds
12:15 PM 66.2 °F - 50.0 °F 56% 30.33 in 10.0 mi ESE 8.1 mph 17.3 mph N/A   Clear
12:35 PM 66.2 °F - 50.0 °F 56% 30.32 in 10.0 mi SE 10.4 mph 16.1 mph N/A   Scattered Clouds
12:55 PM 66.2 °F - 50.0 °F 56% 30.31 in 10.0 mi SSE 8.1 mph 16.1 mph N/A   Mostly Cloudy
1:15 PM 69.8 °F - 50.0 °F 49% 30.29 in 10.0 mi SSE 10.4 mph 16.1 mph N/A   Overcast
1:35 PM 68.0 °F - 50.0 °F 52% 30.28 in 10.0 mi ESE 10.4 mph 19.6 mph N/A   Overcast
1:55 PM 69.8 °F - 50.0 °F 49% 30.25 in 10.0 mi SSE 13.8 mph 20.7 mph N/A   Mostly Cloudy
2:15 PM 68.0 °F - 50.0 °F 52% 30.25 in 10.0 mi South 15.0 mph 20.7 mph N/A   Mostly Cloudy
2:35 PM 69.8 °F - 48.2 °F 46% 30.25 in 10.0 mi SSE 12.7 mph 23.0 mph N/A   Scattered Clouds
2:55 PM 68.0 °F - 50.0 °F 52% 30.24 in 10.0 mi SSE 12.7 mph 19.6 mph N/A   Mostly Cloudy
3:15 PM 71.6 °F - 50.0 °F 46% 30.22 in 10.0 mi SE 12.7 mph 20.7 mph N/A   Mostly Cloudy
3:35 PM 69.8 °F - 48.2 °F 46% 30.22 in 10.0 mi SSE 12.7 mph - N/A   Scattered Clouds
3:55 PM 69.8 °F - 48.2 °F 46% 30.22 in 10.0 mi South 17.3 mph 24.2 mph N/A   Scattered Clouds
4:15 PM 69.8 °F - 50.0 °F 49% 30.22 in 10.0 mi SSE 13.8 mph 20.7 mph N/A   Mostly Cloudy
4:35 PM 69.8 °F - 50.0 °F 49% 30.22 in 10.0 mi SSE 13.8 mph 20.7 mph N/A   Scattered Clouds
4:55 PM 68.0 °F - 50.0 °F 52% 30.21 in 10.0 mi SSE 17.3 mph 23.0 mph N/A   Scattered Clouds
5:15 PM 68.0 °F - 50.0 °F 52% 30.20 in 10.0 mi SSE 11.5 mph 23.0 mph N/A   Clear
5:35 PM 68.0 °F - 51.8 °F 56% 30.20 in 10.0 mi SSE 11.5 mph 23.0 mph N/A   Clear
5:55 PM 66.2 °F - 51.8 °F 60% 30.20 in 10.0 mi SSE 9.2 mph 17.3 mph N/A   Clear
6:15 PM 64.4 °F - 51.8 °F 64% 30.20 in 10.0 mi SSE 11.5 mph 18.4 mph N/A   Clear
6:35 PM 64.4 °F - 51.8 °F 64% 30.17 in 10.0 mi SSE 10.4 mph - N/A   Clear
6:55 PM 64.4 °F - 51.8 °F 64% 30.15 in 10.0 mi SSE 9.2 mph - N/A   Clear
7:15 PM 62.6 °F - 53.6 °F 72% 30.15 in 10.0 mi SSE 13.8 mph 19.6 mph N/A   Clear
7:35 PM 62.6 °F - 53.6 °F 72% 30.17 in 10.0 mi SSE 11.5 mph - N/A   Clear
7:55 PM 62.6 °F - 53.6 °F 72% 30.18 in 10.0 mi SSE 9.2 mph - N/A   Clear
8:15 PM 62.6 °F - 53.6 °F 72% 30.18 in 10.0 mi SSE 10.4 mph 16.1 mph N/A   Clear
8:35 PM 62.6 °F - 53.6 °F 72% 30.17 in 10.0 mi SSE 9.2 mph - N/A   Clear
8:55 PM 62.6 °F - 53.6 °F 72% 30.16 in 10.0 mi SSE 6.9 mph - N/A   Clear
9:15 PM 62.6 °F - 53.6 °F 72% 30.17 in 10.0 mi SSE 8.1 mph - N/A   Clear
9:35 PM 62.6 °F - 53.6 °F 72% 30.17 in 10.0 mi SSE 6.9 mph - N/A   Clear
9:55 PM 62.6 °F - 53.6 °F 72% 30.17 in 10.0 mi SSE 6.9 mph - N/A   Clear
10:15 PM 62.6 °F - 53.6 °F 72% 30.16 in 10.0 mi SSE 6.9 mph - N/A   Clear
10:35 PM 62.6 °F - 53.6 °F 72% 30.18 in 10.0 mi SSE 6.9 mph - N/A   Scattered Clouds
10:55 PM 62.6 °F - 53.6 °F 72% 30.18 in 10.0 mi SSE 4.6 mph - N/A   Mostly Cloudy
11:15 PM 62.6 °F - 53.6 °F 72% 30.18 in 10.0 mi SSE 6.9 mph - N/A   Overcast
11:35 PM 62.6 °F - 53.6 °F 72% 30.16 in 10.0 mi SE 5.8 mph - N/A   Mostly Cloudy
11:55 PM 62.6 °F - 55.4 °F 77% 30.15 in 10.0 mi SE 4.6 mph - N/A Rain Light Rain